Regional Weather Roundup
Issued by NWS

Home | Current Version | Previous Version | Text Only | Print | Product List | Glossary Off
Versions: 1 2 3 4 5 6 7 8 9 10 11 12 13 14 15 16 17 18 19 20 21 22 23 24 25 26 27 28 29 30 31 32 33 34 35 36 37 38 39 40 41 42 43 44 45 46 47 48 49 50

000
ASUS43 KLOT 311009
RWRIL

ILLINOIS REGIONAL WEATHER ROUNDUP
NATIONAL WEATHER SERVICE CHICAGO/ROMEOVILLE IL
500 AM CDT WED AUG 31 2016

NOTE: "FAIR" INDICATES FEW OR NO CLOUDS BELOW 12,000 FEET WITH NO
SIGNIFICANT WEATHER AND/OR OBSTRUCTIONS TO VISIBILITY.

* THESE STATIONS ARE NOT UNDER NWS QUALITY CONTROL. THEY ALSO MAY NOT
  REPORT WEATHER SUCH AS PRECIPITATION OR FOG.

ILZ001-002-007-009-015-016-024-311100-
NORTHWEST ILLINOIS

CITY           SKY/WX    TMP DP  RH WIND       PRES   REMARKS
MOLINE         CLOUDY    71  65  81 N3        30.07R
STERLING*      PTCLDY    68  66  93 N3        30.06S
SAVANNA*       PTCLDY    66  64  93 N6        30.07S
$$

ILZ003-004-008-010-011-017-018-311100-
NORTH CENTRAL ILLINOIS

CITY           SKY/WX    TMP DP  RH WIND       PRES   REMARKS
ROCKFORD       CLOUDY    68  65  90 N9        30.07S
FREEPORT*      MOCLDY    64  62  95 N3        30.10R
ROCHELLE*      CLOUDY    67  66  97 N5        30.06S
DE KALB*       CLOUDY    67  66  96 N7        30.06S
$$

ILZ005-006-012>014-019>023-311100-
NORTHEAST ILLINOIS

CITY           SKY/WX    TMP DP  RH WIND       PRES   REMARKS
CHICAGO-OHARE  CLOUDY    70  67  90 N10       30.04R
CHICAGO-MIDWAY MOCLDY    73  67  81 N12       30.02F
AURORA         CLOUDY    69  67  93 N3        30.04F
LANSING*       CLEAR     70  69  97 N5        30.02S
JOLIET*        CLOUDY    70  69  96 CALM      30.03S
WAUKEGAN       PTCLDY    67  63  87 N8        30.04S
DUPAGE AIRPORT CLOUDY    69  66  90 N7        30.03F
KANKAKEE*      PTCLDY    69  68  95 NW3       30.03S
WHEELING       CLOUDY    70  67  90 N9        30.05S
MORRIS*        CLOUDY    68  67  96 CALM      30.02F
ROMEOVILLE*    CLOUDY    69  69 100 N5        30.03F
NORTHERLY ISL    N/A     71  67  87 N13         N/A
$$

LMZ740>746-311100-
SOUTHERN LAKE MICHIGAN

STATION/POSITION SKY/WX   TEMP    WIND        PRES    VSBY  WAVE
                          AIR SEA DIR/SP/G                  HT/PER
                          (F)     (DEG/KT/KT) (MB)    (MI)  (FT/S)
SOUTHERN BUOY              73 75   20/ 16/ 19 1015.3          2/ 4
WILMETTE HARBOR            71 73   20/ 16/ 19   N/A           3/ 4
HARRISON CRIB              74     350/ 15/ 17   N/A
BURNHAM HARBOR             71     340/  9/ 14   N/A
CALUMET HARBOR             72     290/  3/  5 1016.4F
BURNS HARBOR               74     310/  6/  8 1017.3S
MICHIGAN CITY              72     300/  6/  6   N/A
MICHIGAN CITY 6N           73 69  330/  6/  6   N/A           1/ 2
ST. JOSEPH                 74 72  320/  4/  6 1015.8F         1
$$

ILZ025>027-034>036-040-047-049-050-058-095>099-311100-
WEST-CENTRAL ILLINOIS

CITY           SKY/WX    TMP DP  RH WIND       PRES   REMARKS
QUINCY         PTCLDY    70  69  97 CALM      30.07S FOG
GALESBURG*     CLOUDY    70  69  96 CALM      30.06S
MACOMB*        PTCLDY    70  70  98 N5        30.08S
JACKSONVILLE*  CLOUDY    71  70  97 W3        30.05S FOG
PITTSFIELD*    MOCLDY    70  70  99 CALM      30.08S FOG
$$

ILZ028>032-037-038-041>044-048-051>054-059>061-311100-
CENTRAL ILLINOIS

CITY           SKY/WX    TMP DP  RH WIND       PRES   REMARKS
PONTIAC        CLOUDY    70  70 100 N3        30.04F FOG
BLOOMINGTON    PTCLDY    70  68  93 N5        30.06
DECATUR        PTCLDY    72  70  93 CALM      30.04S
PEORIA         MOCLDY    70  70 100 N3        30.04F
LACON*         CLOUDY    69  68  96 CALM      30.04R
LINCOLN*       FOG       71  71 100 CALM      30.04S VSB 1/4
SPRINGFIELD    CLOUDY    70  69  97 SW3       30.05R FOG
TAYLORVILLE    CLOUDY    68  68 100 CALM      30.05S FOG
$$

ILZ033-039-045-046-055>057-062-063-311100-
EAST-CENTRAL ILLINOIS

CITY           SKY/WX    TMP DP  RH WIND       PRES   REMARKS
CHAMPAIGN      FOG       70  70 100 NW3       30.04S VSB 1/4
RANTOUL*       PTCLDY    71  71  98 CALM      30.04R FOG
MATTOON        CLEAR     69  67  93 W5        30.03S
PARIS*         MOCLDY    68  68 100 CALM      30.04S FOG
$$

ILZ079-100>102-311100-
SOUTHWEST ILLINOIS

CITY           SKY/WX    TMP DP  RH WIND       PRES   REMARKS
ALTON          CLOUDY    70  70 100 CALM      30.06S FOG
BELLEVILLE     CLOUDY    72  72 100 NW1       30.04S FOG
CAHOKIA*       MOCLDY    69  67  93 CALM      30.05S FOG
SPARTA*        FOG       70  70  99 CALM      30.06S VSB 3/4
$$

ILZ064>066-069>071-074>076-080>082-084>086-088>090-092>094-311100-
SOUTH-CENTRAL ILLINOIS

CITY           SKY/WX    TMP DP  RH WIND       PRES   REMARKS
CARBONDALE     CLOUDY    71  69  93 NW6       30.04S FOG
CAIRO*         CLEAR     69  69 100 CALM      30.02S FOG
EFFINGHAM*     CLEAR     68  68 100 CALM      30.05F FOG
MARION         CLOUDY    73  72  94 NW3       30.04S FOG
MT. VERNON     CLOUDY    72  66  83 CALM      30.04S
CENTRALIA*     CLOUDY    73  73 100 CALM      30.04S FOG
SALEM*         FOG       72  71  95 CALM      30.05S VSB 1/4
METROPOLIS*    CLEAR     73  72  97 CALM      30.02S FOG
$$

ILZ067-068-072-073-078-083-087-091-311100-
SOUTHEAST ILLINOIS

CITY           SKY/WX    TMP DP  RH WIND       PRES   REMARKS
LAWRENCEVILLE  MOCLDY    72  72 100 NW5       30.02F
FLORA*         CLEAR     73  71  95 NW5       30.04S
FAIRFIELD*       N/A     71  71  99 CALM      30.02S
HARRISBURG*    CLEAR     72  72 100 CALM      30.02F FOG
ROBINSON*      CLEAR     67  67 100 NW3       30.03F FOG
CARMI*         CLEAR     70  70 100 NW5       30.01S FOG
$$

ABBREVIATIONS USED IN REMARKS
   TC - TEMPERATURE IN CELSIUS
  WCI - WIND CHILL INDEX
   HX - HEAT INDEX
  VSB - VISIBILITY
$$




USA.gov is the U.S. government's official web portal to all federal, state and local government web resources and services.